Regional Weather Roundup
Issued by NWS

Home | Current Version | Previous Version | Text Only | Print | Product List | Glossary On
Versions: 1 2 3 4 5 6 7 8 9 10 11 12 13 14 15 16 17 18 19 20 21 22 23 24 25 26 27 28 29 30 31 32 33 34 35 36 37 38 39 40 41 42 43 44 45 46 47 48 49 50
000
ASUS43 KOAX 271510
RWRNE

WEATHER ROUNDUP FOR NEBRASKA
NATIONAL WEATHER SERVICE OMAHA NE
1000 AM CDT FRI MAR 27 2015

NOTES: SATELLITE DATA IS BEING USED TO AUGMENT CLOUD COVER ABOVE
       12000 FEET.
       "FAIR" INDICATES FEW OR NO CLOUDS BELOW 12,000 FEET WITH NO
       SIGNIFICANT WEATHER AND/OR OBSTRUCTIONS TO VISIBILITY.

  * THESE STATIONS DO NOT REPORT WEATHER SUCH AS RAIN...SNOW OR FOG.

NEZ001>004-019>022-054>056-271600-
NEBRASKA PANHANDLE

CITY           SKY/WX    TMP DP  RH WIND       PRES   REMARKS
SCOTTSBLUFF    CLOUDY    42  37  82 W7G22     30.13F
ALLIANCE       CLOUDY    42  38  85 SW9       30.09F
CHADRON        CLOUDY    46  40  79 W8        30.07F
KIMBALL        CLOUDY    45  34  65 W6        30.13F
SIDNEY         PTSUNNY   44  35  70 SW16      30.14F
$$

NEZ057>060-069>072-079>082-271600-
SOUTHWEST NEBRASKA

CITY           SKY/WX    TMP DP  RH WIND       PRES   REMARKS
NORTH PLATTE   CLOUDY    33  29  85 S9        30.20F WCI  25
IMPERIAL         N/A     36  32  85 S10       30.19F WCI  28
LEXINGTON      CLOUDY    35  26  68 S8        30.23F WCI  29
MCCOOK         CLOUDY    35  30  82 S8        30.23F WCI  29
OGALLALA       CLOUDY    37  34  91 SW9       30.16F WCI  30
$$

NEZ005>010-023>029-035>040-094-271600-
NORTH CENTRAL NEBRASKA

CITY           SKY/WX    TMP DP  RH WIND       PRES   REMARKS
VALENTINE      CLOUDY    35  28  75 S16       30.12F WCI  25
AINSWORTH      CLOUDY    34  28  80 S13       30.15F WCI  25
BROKEN BOW     CLOUDY    34  25  69 S8        30.20F WCI  27
O`NEILL        CLOUDY    29  22  75 S9        30.22F WCI  21
ORD            CLOUDY    31  23  72 SE7       30.23F WCI  24
THEDFORD       CLOUDY    35  30  80 S10       30.16F WCI  27
$$

NEZ041-046>049-061>064-073>077-083>087-271600-
SOUTH CENTRAL NEBRASKA

CITY           SKY/WX    TMP DP  RH WIND       PRES   REMARKS
GRAND ISLAND   MOSUNNY   30  20  66 E6        30.27F WCI  24
AURORA         SUNNY     30  22  70 E3        30.27S
HASTINGS       CLOUDY    31  21  66 SE6       30.25F WCI  25
HEBRON         SUNNY     31  20  63 E5        30.29F WCI  26
HOLDREGE       CLOUDY    33  25  72 SE5       30.23F WCI  28
KEARNEY *      CLOUDY    30  25  80 SE5       30.25F WCI  25
YORK           SUNNY     30  23  74 CALM      30.28S
$$

NEZ011>018-030>034-042>045-271600-
NORTHEAST NEBRASKA

CITY           SKY/WX    TMP DP  RH WIND       PRES   REMARKS
NORFOLK        SUNNY     28  17  63 CALM      30.27S
ALBION         SUNNY     29  18  64 S3        30.26F
BLAIR          SUNNY     29  17  60 NW5       30.28S WCI  24
COLUMBUS *     SUNNY     28  14  54 CALM      30.30S
FREMONT        SUNNY     29  20  67 CALM      30.30S
TEKAMAH        SUNNY     30  17  58 VRB6G23   30.30F WCI  24
WAYNE          MOSUNNY   27  17  65 CALM      30.28F
$$

NEZ050>053-065>068-078-088>093-271600-
SOUTHEAST NEBRASKA

CITY           SKY/WX    TMP DP  RH WIND       PRES   REMARKS
LINCOLN        SUNNY     31  22  69 VRB3      30.31F
OMAHA EPPLEY   PTSUNNY   28  20  71 N8        30.30F WCI  20
BEATRICE       SUNNY     30  20  65 NE8       30.30S WCI  23
FALLS CITY     SUNNY     31  21  66 N9        30.30R WCI  23
NEBRASKA CITY  SUNNY     30  18  60 N6        30.29S WCI  24
PLATTSMOUTH    SUNNY     29  19  67 NW3       30.29S
$$

NEZ044-045-051>053-067-271600-
OMAHA AREA

CITY           SKY/WX    TMP DP  RH WIND       PRES   REMARKS
OMAHA EPPLEY   PTSUNNY   28  20  71 N8        30.30F WCI  20
BLAIR          SUNNY     29  17  60 NW5       30.28S WCI  24
FREMONT        SUNNY     29  20  67 CALM      30.30S
MILLARD        SUNNY     30  16  56 N5        30.30S WCI  25
OFFUTT AFB     SUNNY     30  19  61 VRB3      30.29F
PLATTSMOUTH    SUNNY     29  19  67 NW3       30.29S
WAHOO          FAIR      29  20  69 N5        30.30S WCI  24
$$


USA.gov is the U.S. government's official web portal to all federal, state and local government web resources and services.